Location: Batschuns
(47.2831°N, 9.6500°E)
Time: 06:53:26
(UTC+00:00)

Daily predictions for brighter satellites

Satellite Brightness Start Highest point End
(mag) Time Altitude Azimuth Time Altitude Azimuth Time Altitude Azimuth
Cosmos 1975 Rocket 3.4 19:54:42 10° SSE 19:59:00 48° E 20:03:17 10° NNE
Cosmos 1603 4.1 19:53:38 10° SSW 19:59:20 73° WNW 20:05:06 10° NNE
Terra 3.2 19:55:49 10° ESE 19:59:39 25° ENE 20:03:30 10° N
Meteor 2-5 Rocket 4.0 19:56:11 10° SSE 20:01:28 49° E 20:06:48 10° NNE
CARTOSAT-1 3.8 19:57:20 10° SSE 20:01:33 59° ENE 20:05:49 10° N
PSLV R/B 4.0 19:57:46 10° NNE 20:01:54 85° WNW 20:06:03 10° SSW
FALCON 9 DEB 3.4 19:59:11 10° WSW 20:02:26 68° NNW 20:05:42 10° ENE
ERS-1 Rocket 3.8 20:04:27 10° SE 20:09:04 38° ENE 20:13:43 10° N
Cosmos 1745 Rocket 4.3 20:04:09 10° NNW 20:10:16 71° W 20:16:23 10° S
Cosmos 2056 Rocket 3.8 20:06:04 10° S 20:11:13 51° ESE 20:16:29 10° NNE
Cosmos 1140 Rocket 3.8 20:07:05 10° NNW 20:12:17 68° WSW 20:17:23 10° S
Cosmos 2084 3.8 20:10:06 10° S 20:13:36 34° ESE 20:17:07 10° ENE
Cosmos 1455 3.0 20:12:06 10° N 20:15:38 35° ENE 20:19:03 11° SE
Cosmos 1544 Rocket 4.1 20:12:47 10° N 20:16:56 43° ENE 20:21:01 10° SSE
Cosmos 1953 4.2 20:13:38 10° NNW 20:17:02 28° W 20:20:25 10° SSW
CZ-4B R/B 1.5 20:15:03 10° N 20:17:54 62° WNW 20:20:45 10° SSW
X-37B 1.4 20:16:15 10° SW 20:18:36 24° SSE 20:20:58 10° E
Cosmos 676 Rocket 4.3 20:14:55 10° NNW 20:20:11 58° ENE 20:25:12 11° SE
Cosmos 1420 Rocket 4.3 20:15:15 10° S 20:20:16 49° ESE 20:25:21 10° NNE
Cosmos 1980 Rocket 4.4 20:20:27 10° N 20:23:34 15° NE 20:26:40 10° ENE
Resurs 01 Rocket 2.9 20:21:38 10° SSW 20:25:48 39° W 20:30:00 10° NNW
Cosmos 1697 Rocket 4.4 20:22:51 10° N 20:27:18 23° NE 20:31:44 10° E
Cosmos 2369 Rocket 4.5 20:23:35 10° WNW 20:27:20 18° W 20:31:04 10° SW
SPOT 1/Viking Rocket 4.3 20:22:44 10° S 20:27:42 50° W 20:32:44 10° NNW
IRAS Rocket 4.3 20:22:56 10° NNE 20:28:36 88° ESE 20:34:10 10° SSW
USA 32 4.1 20:26:04 10° S 20:31:12 63° E 20:36:23 10° NNE
Ariane Rocket 3.8 20:31:56 10° S 20:36:51 48° W 20:41:49 10° NNW
Cosmos 1954 Rocket 4.0 20:34:08 10° NNW 20:39:28 88° ENE 20:44:08 13° SSE
Cosmos 1656 4.2 20:36:38 10° NNW 20:41:56 49° ENE 20:46:33 14° SE
Meteor 1-24 Rocket 3.6 20:37:52 10° S 20:43:11 88° W 20:48:38 10° N
CZ-2C R/B 4.0 20:39:16 10° NNE 20:43:44 48° E 20:47:51 11° S
USA 267 3.5 20:37:44 10° ENE 20:43:58 45° SE 20:50:11 10° SSW
NOSS 2-1 (C) 4.1 20:40:46 10° NW 20:45:12 75° NE 20:50:28 14° SE
Cosmos 724 4.4 20:44:42 10° SSW 20:50:20 54° ESE 20:55:58 10° NE
Cosmos 2315 Rocket 4.3 20:45:21 10° SSW 20:51:41 71° W 20:57:59 10° N
Helios 1A Rocket 3.0 20:49:35 14° S 20:53:04 80° WSW 20:57:11 10° NNW
NOSS 2-1 (D) 4.0 20:51:04 10° NW 20:55:34 87° NE 21:00:34 16° SE
Cosmos 1833 Rocket 3.7 20:53:24 16° SSE 20:56:40 26° ESE 21:01:15 10° NE
SL-8 R/B 3.9 20:53:35 10° W 20:58:24 77° N 21:03:15 10° E
ARIANE 5 R/B 2.8 20:55:09 17° SSE 20:58:29 60° ENE 21:02:52 10° N
SPOT 5 2.9 20:58:11 13° S 21:02:05 65° WSW 21:06:26 10° NNW
ATLAS 5 CENTAUR R/B 4.1 20:52:33 10° NW 21:03:44 39° WSW 21:07:16 13° S
Cosmos 1025 Rocket 4.2 21:00:02 10° SSW 21:04:05 42° WNW 21:08:11 10° N
Lacrosse 5 rocket 1.9 21:03:17 10° WNW 21:06:59 43° SW 21:09:19 21° SSE
Spot 2 Rocket 3.9 21:03:13 13° S 21:07:46 60° W 21:12:51 10° NNW
Cosmos 2074 Rocket 4.0 21:03:10 10° N 21:09:29 79° E 21:14:25 17° SSE
Cosmos 1452 Rocket 3.6 21:08:16 13° S 21:12:52 57° ESE 21:18:02 10° NNE
RESURS DK-1 3.1 21:09:00 10° NNW 21:12:59 43° NE 21:15:36 19° ESE
Tiangong 2.3 21:12:13 10° WSW 21:14:54 24° S 21:15:07 24° S
Cosmos 1271 Rocket 3.6 21:11:42 10° NNW 21:15:32 46° W 21:18:36 15° SSW
ATLAS 2AS CENTAUR R/B 2.9 21:09:37 10° NW 21:16:39 65° WSW 21:21:29 19° SSE
Cosmos 2082 Rocket 3.8 21:15:47 15° ESE 21:17:28 17° E 21:20:57 10° ENE
USA 234 3.6 21:12:17 10° ESE 21:18:47 67° NNE 21:25:17 10° NW
SAR-Lupe-1 4.4 21:22:36 10° NNE 21:26:05 47° E 21:27:32 29° SSE
Cosmos 1110 Rocket 4.3 21:23:04 20° S 21:26:23 47° ESE 21:31:27 10° NNE
Nadezhda 1 Rocket 4.0 21:22:54 18° S 21:27:24 64° E 21:33:25 10° NNE
Lacrosse 5 2.1 21:24:31 10° WNW 21:29:32 57° SW 21:32:24 24° SSE
Cosmos 1536 Rocket 3.8 21:26:39 14° SSW 21:30:22 66° W 21:34:43 10° N
Cosmos 2154 Rocket 4.0 21:26:38 10° N 21:32:54 83° E 21:37:10 22° SSE
USA 276 1.8 21:31:27 10° WSW 21:34:27 87° S 21:37:28 10° ENE
Terra 2.6 21:33:41 16° SSW 21:37:10 45° W 21:41:45 10° NNW
Cosmos 1610 Rocket 4.5 21:31:20 10° N 21:37:34 81° E 21:41:43 23° SSE
Cosmos 2228 3.0 21:33:36 10° N 21:37:51 81° W 21:40:08 27° S
Cosmos 1606 Rocket 3.6 21:33:50 10° N 21:38:09 66° E 21:40:15 29° SSE
Cosmos 2344 4.4 21:29:46 10° NW 21:38:27 71° NE 21:49:16 14° SE
Cosmos 1295 Rocket 4.5 21:35:40 10° N 21:41:58 90° WNW 21:46:05 23° S
Cosmos 1825 4.2 21:44:54 14° E 21:45:29 14° E 21:47:30 10° NE
ERS-1 Rocket 4.4 21:43:54 12° SSW 21:47:55 31° W 21:52:23 10° NNW
COSMOS 2406 3.7 21:49:46 26° SSE 21:52:33 43° ESE 21:57:58 10° NE
X-37B 1.1 21:51:02 10° WSW 21:53:00 36° SW 21:53:00 36° SW
Cosmos 2369 4.2 21:52:10 10° NNW 21:57:48 55° ENE 22:01:22 22° SE
Cosmos 1741 Rocket 4.3 21:53:06 10° NNW 21:58:20 59° WSW 22:01:12 26° S
SL-16 R/B 4.4 21:55:35 10° N 21:59:38 19° NE 22:03:40 10° E
Cosmos 1726 Rocket 3.4 21:59:01 10° N 22:03:21 87° WSW 22:05:09 35° S
Cosmos 968 Rocket 3.9 21:59:43 10° NNW 22:04:50 56° ENE 22:07:37 26° SE
SL-8 Rocket 4.2 21:59:23 10° N 22:05:35 60° ENE 22:09:01 27° SSE
Spot 4 4.0 22:06:05 30° SE 22:08:19 62° ENE 22:13:03 10° N
Meteor 1-11 4.3 22:05:47 29° SSE 22:08:38 61° E 22:14:09 10° NNE
Cosmos 1980 Rocket 2.6 22:03:13 10° NNW 22:08:52 58° ENE 22:12:13 24° SE
Cosmos 1697 Rocket 2.7 22:06:15 10° NNW 22:11:53 74° WSW 22:14:40 31° SSE
ALOS 2 3.3 22:11:52 27° ESE 22:13:44 43° ENE 22:17:54 10° N
Cosmos 1328 4.1 22:12:23 29° SSW 22:14:17 63° W 22:18:17 10° N
Cosmos 1892 2.9 22:13:39 42° SE 22:14:27 52° E 22:18:07 10° NNE
Cosmos 2218 Rocket 4.3 22:09:10 10° N 22:15:31 61° ENE 22:19:02 27° SSE
Cosmos 967 Rocket 4.5 22:13:03 17° SSW 22:18:12 76° ESE 22:24:40 10° NE
Cosmos 192 4.3 22:16:35 33° S 22:18:41 66° ESE 22:23:34 10° NNE
Cosmos 2366 rocket 4.2 22:14:30 10° N 22:20:48 66° ENE 22:24:11 29° SSE
Cosmos 2341 Rocket 4.0 22:15:49 10° N 22:22:12 89° WSW 22:25:37 29° S
In-Cosmos 22 Rocket 4.4 22:21:57 31° SSE 22:24:25 56° E 22:29:48 10° NNE
Cosmos 1633 4.4 22:24:46 18° E 22:24:57 18° E 22:27:24 10° NE
ASTEX 1 3.8 22:22:05 10° N 22:27:01 59° W 22:29:50 25° SSW
USA 267 3.6 22:20:42 10° NE 22:27:12 69° NNW 22:33:41 10° WSW
ADEOS Rocket 3.7 22:23:17 25° SE 22:27:40 66° ENE 22:35:15 10° N
Cosmos 2058 Rocket 3.1 22:30:13 10° NNW 22:34:38 71° W 22:36:09 39° S
Cosmos 1892 Rocket 4.1 22:36:30 28° SW 22:38:36 54° WNW 22:42:55 10° N
Cosmos 2322 Rocket 4.0 22:35:07 10° N 22:39:47 25° NE 22:44:27 10° ESE
Cosmos 1833 Rocket 3.3 22:35:01 11° SW 22:40:14 54° WNW 22:45:46 10° NNE
SL-8 R/B 3.6 22:36:11 10° WNW 22:40:57 64° SSW 22:42:54 34° SE
Cosmos 2278 4.0 22:37:15 10° NNW 22:42:58 64° ENE 22:46:07 27° SE
H-2A R/B 3.4 22:39:48 10° NNE 22:44:01 74° ESE 22:45:11 46° S
Cosmos 1959 Rocket 4.4 22:40:20 10° N 22:46:29 86° W 22:49:27 33° S
Cosmos 1408 3.1 22:45:59 38° WSW 22:46:49 48° WNW 22:50:10 10° N
GP-B 4.0 22:43:43 10° NNW 22:47:54 41° W 22:49:54 25° SW
Cosmos 1992 Rocket 4.4 22:46:40 36° SSE 22:48:21 49° ESE 22:53:24 10° NNE
ATLAS 5 CENTAUR R/B 2.7 22:50:40 23° ESE 22:50:40 23° ESE 22:53:21 10° ENE
Cosmos 807 4.5 22:46:59 10° N 22:50:23 55° ENE 22:50:35 54° E
RESURS DK-1 4.0 22:47:36 10° WNW 22:50:41 21° WSW 22:51:26 20° WSW
TIMED 4.4 22:50:55 45° S 22:52:10 76° ESE 22:56:33 10° NNE
Cosmos-2242 3.8 22:50:56 10° N 22:54:59 42° ENE 22:56:21 32° ESE
Cosmos 1626 Rocket 3.4 22:54:02 47° S 22:55:14 79° E 22:59:36 10° NNE
Cosmos 2181 Rocket 4.0 22:52:47 30° SSW 22:56:04 78° W 23:02:18 10° N
Cosmos 1867 3.5 22:54:28 10° NW 22:59:59 89° SW 23:02:32 33° SE
Cosmos 2082 Rocket 2.2 22:57:34 27° SSW 23:00:48 83° WNW 23:06:33 10° NNE
USA 234 3.6 22:59:13 31° S 23:01:58 48° SW 23:08:17 10° WNW
Okean 1-7 Rocket 3.7 23:06:13 39° SSW 23:07:44 67° W 23:12:13 10° N
USA 276 3.0 23:07:23 10° WNW 23:10:18 47° N 23:13:13 10° ENE
Lacrosse 5 4.1 23:10:35 10° WSW 23:11:31 10° WSW 23:11:35 10° WSW
Cosmos 2058 4.0 23:14:21 29° ESE 23:15:18 33° E 23:19:05 10° NNE
FALCON 9 DEB 4.5 23:12:48 10° NW 23:15:53 37° NNE 23:18:59 10° E
Meteor 2-20 4.4 23:15:05 34° S 23:17:53 76° E 23:23:59 10° NNE
Cosmos 1821 Rocket 4.0 23:11:41 10° N 23:18:00 85° E 23:20:59 33° SSE
Cosmos 2360 Rocket 3.7 23:15:07 10° NNW 23:20:10 32° NE 23:25:11 10° ESE
Cosmos 1825 2.9 23:19:32 37° WSW 23:20:25 45° WNW 23:24:03 10° N
SJ 16-02 2.3 23:18:54 10° N 23:23:08 42° ENE 23:25:18 24° ESE
BREEZE-M DEB (TANK) 4.2 23:20:07 10° WNW 23:23:50 86° NNE 23:40:12 10° ESE
Cosmos 1869 4.0 23:21:18 10° NNW 23:24:54 38° W 23:25:34 35° WSW
ERS-2 2.2 23:26:10 10° N 23:29:44 66° WNW 23:30:22 53° SW
Cosmos 2084 Rocket 4.2 23:29:13 10° WNW 23:32:33 32° WSW 23:32:33 32° WSW
Nadezhda 3 Rocket 3.9 23:30:29 34° S 23:33:21 83° E 23:39:32 10° N
Cosmos 1606 2.7 23:30:42 10° N 23:34:33 78° E 23:35:18 55° SSE
PSLV R/B 3.7 23:34:14 10° NNE 23:39:02 90° ESE 23:40:41 42° SSW
Cosmos 1932 4.5 23:37:53 25° SW 23:41:40 82° NW 23:48:03 10° NE
Cosmos 1758 Rocket 3.6 23:41:08 43° SW 23:42:23 67° W 23:46:45 10° N
Meteor 2-20 Rocket 4.4 23:41:09 34° S 23:44:02 86° E 23:50:11 10° N
Nimbus 7 Rocket 4.4 23:38:18 10° NNE 23:44:15 88° WNW 23:47:07 33° SSW
SL-16 R/B 2.2 23:38:53 10° NNW 23:44:36 86° ENE 23:47:37 29° SSE
ALOS 2 4.2 23:49:16 20° WSW 23:50:16 21° W 23:53:39 10° NW
Cosmos 2221 3.4 23:47:28 10° N 23:51:36 42° ENE 23:53:34 26° SE
Cosmos 1980 Rocket 3.5 23:47:55 10° NW 23:52:26 25° WSW 23:53:57 22° SW
Cosmos 1812 Rocket 4.4 23:49:20 10° NNW 23:53:28 38° W 23:54:37 32° SW
